TimeEST,TemperatureF,Dew PointF,Humidity,Sea Level PressureIn,VisibilityMPH,Wind Direction,Wind SpeedMPH,Gust SpeedMPH,PrecipitationIn,Events,Conditions,WindDirDegrees,DateUTC
12:15 AM,14.0,8.6,79,30.14,10.0,NW,5.8,-,N/A,,Overcast,310,2013-03-04 05:15:00
12:35 AM,14.0,8.6,79,30.14,10.0,Calm,Calm,-,N/A,,Overcast,0,2013-03-04 05:35:00
12:55 AM,12.2,8.6,85,30.14,10.0,NW,4.6,-,N/A,,Overcast,310,2013-03-04 05:55:00
1:15 AM,15.8,8.6,73,30.14,10.0,NW,4.6,-,N/A,,Overcast,310,2013-03-04 06:15:00
1:35 AM,15.8,8.6,73,30.14,10.0,WNW,4.6,-,N/A,,Overcast,300,2013-03-04 06:35:00
1:55 AM,15.8,10.4,79,30.14,10.0,WNW,4.6,-,N/A,,Overcast,300,2013-03-04 06:55:00
2:15 AM,12.2,6.8,79,30.14,10.0,Calm,Calm,-,N/A,,Overcast,0,2013-03-04 07:15:00
2:35 AM,12.2,8.6,85,30.14,10.0,West,4.6,-,N/A,,Mostly Cloudy,260,2013-03-04 07:35:00
2:55 AM,12.2,8.6,85,30.14,10.0,West,5.8,-,N/A,,Partly Cloudy,280,2013-03-04 07:55:00
3:15 AM,12.2,8.6,85,30.13,10.0,WNW,5.8,-,N/A,,Clear,300,2013-03-04 08:15:00
3:35 AM,10.4,5.0,79,30.14,10.0,NW,5.8,-,N/A,,Clear,310,2013-03-04 08:35:00
3:55 AM,8.6,6.8,92,30.14,10.0,WNW,5.8,-,N/A,,Clear,300,2013-03-04 08:55:00
4:15 AM,10.4,6.8,85,30.13,10.0,NW,6.9,-,N/A,,Clear,310,2013-03-04 09:15:00
4:35 AM,8.6,3.2,79,30.13,10.0,WNW,5.8,-,N/A,,Clear,300,2013-03-04 09:35:00
4:55 AM,8.6,3.2,79,30.13,10.0,WNW,6.9,-,N/A,,Clear,300,2013-03-04 09:55:00
5:15 AM,8.6,5.0,85,30.13,10.0,NW,5.8,-,N/A,,Clear,320,2013-03-04 10:15:00
5:35 AM,8.6,6.8,92,30.14,10.0,NW,6.9,-,N/A,,Clear,320,2013-03-04 10:35:00
5:55 AM,8.6,6.8,92,30.14,10.0,NW,5.8,-,N/A,,Clear,320,2013-03-04 10:55:00
6:15 AM,6.8,-0.4,72,30.14,10.0,Calm,Calm,-,N/A,,Clear,0,2013-03-04 11:15:00
6:35 AM,1.4,-0.4,92,30.14,10.0,NW,3.5,-,N/A,,Clear,320,2013-03-04 11:35:00
6:55 AM,1.4,-2.2,85,30.15,10.0,Calm,Calm,-,N/A,,Clear,0,2013-03-04 11:55:00
7:15 AM,3.2,1.4,92,30.16,10.0,Calm,Calm,-,N/A,,Clear,0,2013-03-04 12:15:00
7:35 AM,3.2,1.4,92,30.16,10.0,Calm,Calm,-,N/A,,Clear,0,2013-03-04 12:35:00
7:55 AM,3.2,-0.4,85,30.16,10.0,Calm,Calm,-,N/A,,Clear,0,2013-03-04 12:55:00
8:15 AM,6.8,1.4,79,30.17,10.0,Calm,Calm,-,N/A,,Clear,0,2013-03-04 13:15:00
8:35 AM,6.8,5.0,92,30.18,10.0,NW,3.5,-,N/A,,Clear,310,2013-03-04 13:35:00
8:55 AM,10.4,5.0,79,30.18,10.0,Calm,Calm,-,N/A,,Mostly Cloudy,0,2013-03-04 13:55:00
9:15 AM,12.2,8.6,85,30.18,10.0,Calm,Calm,-,N/A,,Overcast,0,2013-03-04 14:15:00
9:35 AM,15.8,8.6,73,30.19,10.0,Calm,Calm,-,N/A,,Overcast,0,2013-03-04 14:35:00
9:55 AM,15.8,6.8,68,30.18,10.0,Calm,Calm,-,N/A,,Overcast,0,2013-03-04 14:55:00
10:15 AM,19.4,10.4,68,30.19,10.0,Calm,Calm,-,N/A,,Overcast,0,2013-03-04 15:15:00
10:35 AM,19.4,10.4,68,30.20,10.0,Calm,Calm,-,N/A,,Mostly Cloudy,0,2013-03-04 15:35:00
10:55 AM,19.4,10.4,68,30.20,10.0,East,5.8,-,N/A,,Clear,80,2013-03-04 15:55:00
11:15 AM,21.2,12.2,68,30.20,10.0,ENE,8.1,-,N/A,,Clear,60,2013-03-04 16:15:00
11:35 AM,21.2,12.2,68,30.20,10.0,NE,10.4,-,N/A,,Clear,50,2013-03-04 16:35:00
11:55 AM,23.0,12.2,63,30.19,10.0,NE,8.1,-,N/A,,Clear,40,2013-03-04 16:55:00
12:15 PM,24.8,12.2,59,30.19,10.0,NE,5.8,-,N/A,,Clear,50,2013-03-04 17:15:00
12:35 PM,24.8,12.2,59,30.19,10.0,ENE,5.8,-,N/A,,Clear,60,2013-03-04 17:35:00
12:55 PM,26.6,12.2,55,30.18,10.0,NNE,9.2,-,N/A,,Clear,20,2013-03-04 17:55:00
1:15 PM,26.6,12.2,55,30.17,10.0,ENE,5.8,-,N/A,,Clear,70,2013-03-04 18:15:00
1:55 PM,28.4,12.2,51,30.16,10.0,East,4.6,-,N/A,,Clear,100,2013-03-04 18:55:00
2:15 PM,26.6,15.8,64,30.15,10.0,SSE,9.2,-,N/A,,Clear,160,2013-03-04 19:15:00
2:35 PM,26.6,17.6,69,30.15,10.0,SSE,8.1,-,N/A,,Clear,150,2013-03-04 19:35:00
2:55 PM,26.6,15.8,64,30.14,10.0,SSE,8.1,-,N/A,,Clear,160,2013-03-04 19:55:00
3:15 PM,28.4,15.8,59,30.14,10.0,SSE,6.9,-,N/A,,Clear,160,2013-03-04 20:15:00
3:35 PM,26.6,15.8,64,30.13,10.0,SE,8.1,-,N/A,,Clear,130,2013-03-04 20:35:00
3:55 PM,26.6,15.8,64,30.13,10.0,SE,6.9,-,N/A,,Clear,140,2013-03-04 20:55:00
4:15 PM,26.6,15.8,64,30.13,10.0,SE,5.8,-,N/A,,Clear,140,2013-03-04 21:15:00
4:35 PM,28.4,15.8,59,30.13,10.0,South,8.1,-,N/A,,Clear,170,2013-03-04 21:35:00
4:55 PM,26.6,15.8,64,30.13,10.0,South,6.9,-,N/A,,Clear,170,2013-03-04 21:55:00
5:15 PM,26.6,17.6,69,30.13,10.0,SSE,6.9,-,N/A,,Clear,160,2013-03-04 22:15:00
5:35 PM,26.6,15.8,64,30.14,10.0,SSE,5.8,-,N/A,,Clear,150,2013-03-04 22:35:00
5:55 PM,26.6,15.8,64,30.14,10.0,SSE,5.8,-,N/A,,Clear,160,2013-03-04 22:55:00
6:15 PM,26.6,15.8,64,30.14,10.0,South,4.6,-,N/A,,Clear,170,2013-03-04 23:15:00
6:35 PM,24.8,17.6,74,30.15,10.0,SSW,4.6,-,N/A,,Clear,200,2013-03-04 23:35:00
6:55 PM,24.8,15.8,69,30.15,10.0,Calm,Calm,-,N/A,,Clear,0,2013-03-04 23:55:00
7:15 PM,21.2,15.8,80,30.15,10.0,Calm,Calm,-,N/A,,Clear,0,2013-03-05 00:15:00
7:35 PM,21.2,15.8,80,30.16,10.0,Calm,Calm,-,N/A,,Clear,0,2013-03-05 00:35:00
7:55 PM,21.2,15.8,80,30.16,10.0,Calm,Calm,-,N/A,,Clear,0,2013-03-05 00:55:00
8:15 PM,17.6,12.2,79,30.16,10.0,Calm,Calm,-,N/A,,Clear,0,2013-03-05 01:15:00
8:35 PM,19.4,14.0,80,30.16,10.0,North,4.6,-,N/A,,Clear,10,2013-03-05 01:35:00
8:55 PM,23.0,10.4,59,30.16,10.0,NNE,5.8,-,N/A,,Clear,30,2013-03-05 01:55:00
9:15 PM,23.0,8.6,54,30.16,10.0,NNE,6.9,-,N/A,,Clear,20,2013-03-05 02:15:00
9:35 PM,23.0,10.4,59,30.17,10.0,NNE,6.9,-,N/A,,Clear,20,2013-03-05 02:35:00
9:55 PM,21.2,12.2,68,30.17,10.0,NNE,6.9,-,N/A,,Clear,30,2013-03-05 02:55:00
10:15 PM,21.2,10.4,63,30.17,10.0,NNE,8.1,-,N/A,,Clear,30,2013-03-05 03:15:00
10:35 PM,21.2,12.2,68,30.17,10.0,NNE,4.6,-,N/A,,Clear,30,2013-03-05 03:35:00
10:55 PM,21.2,10.4,63,30.17,10.0,NNE,4.6,-,N/A,,Clear,20,2013-03-05 03:55:00
11:15 PM,21.2,12.2,68,30.17,10.0,NNE,4.6,-,N/A,,Clear,30,2013-03-05 04:15:00
11:35 PM,19.4,12.2,74,30.17,10.0,NNE,3.5,-,N/A,,Clear,30,2013-03-05 04:35:00
11:55 PM,17.6,10.4,73,30.17,10.0,Calm,Calm,-,N/A,,Clear,0,2013-03-05 04:55:00